Location: Dittelbrunn
(50.0738°N, 10.2196°E)
Time: 13:01:29
(UTC+00:00)

ERS-1 Rocket - Pass Details

Date: 18 September 2020
Orbit: 753 x 757 km, 98.5° (Epoch: 25 October)

Event Time Altitude Azimuth Distance (km) Brightness Sun altitude
Exits shadow 20:57:24 52° 334° (NNW) 939 3.6 -30.9°
Drops below altitude 10° 21:01:14 10° 344° (NNW) 2,296 6.2 -31.3°
Sets 21:03:32 0° 345° (NNW) 3,226 7.2 -31.5°
